Flag for Germany Weather past 2 weeks in Stassfurt, Saxony-Anhalt, Germany

Now
50 °F

Fog.


Feels Like: 50 °F
Forecast: 42 / 55 °F
Wind: 2 mph from Northwest

Location: Magdeburg

Current Time: Oct 23, 2014 at 8:20:30 AM

Latest Report: Oct 23, 2014 at 8:00 AM


Visibility: 4 mi

Pressure: 30.12 "Hg

Humidity: 89%

Dew point: 47 °F

Location of StassfurtLocation

Historic Weather in Stassfurt — Graph

°F

Stassfurt temperature yesterday

Maximum temperature yesterday: 53 °F (at 8:00 PM)
Minimum temperature yesterday: 47 °F (at 7:00 AM)
Average temperature yesterday: 50 °F

Past Weeks' High & Low Weather Summary

 TemperatureHumidityPressure
High74 °F (Oct 19, 3:00 PM)98% (Oct 11, 7:00 AM)30.21 "Hg (Oct 11, 7:00 AM)
Low47 °F (Oct 22, 7:00 AM)54% (Oct 14, 4:00 PM)29.47 "Hg (Oct 21, 7:00 PM)
Average57 °F86%29.86 "Hg
* Reported Oct 8 7:00 AM — Oct 23 7:00 AM, Stassfurt, Weather by CustomWeather, © 2014

Note: Actual official high and low records may vary slightly from our data, if they occured in-between our weather recording intervals... More about our weather records

Advertising

Stassfurt weather history for previous 24 hours

 ConditionsComfort  
Time TempWeatherWind HumidityBarometerVisibility
7:00 AM
Oct 23
50 °FOvercast.3 mph88%30.10 "Hg5 mi
6:00 AM51 °FOvercast.2 mph88%30.08 "Hg6 mi
5:00 AM51 °FOvercast.3 mph90%30.06 "Hg6 mi
4:00 AM51 °FOvercast.3 mph89%30.05 "Hg7 mi
3:00 AM51 °FLow clouds.3 mph91%30.03 "Hg6 mi
2:00 AM51 °FDrizzle. Low clouds.3 mph93%30.01 "Hg4 mi
1:00 AM52 °FLow clouds.3 mph92%30.00 "Hg7 mi
12:00 AM52 °FLow clouds.3 mph91%29.98 "Hg9 mi
10:00 PM
Oct 22
53 °FLight freezing rain. Overcast.3 mph92%29.93 "Hg3 mi
9:00 PM53 °FOvercast.5 mph86%29.90 "Hg19 mi
8:00 PM53 °FOvercast.5 mph85%29.87 "Hg25 mi
7:00 PM53 °FOvercast.5 mph88%29.83 "Hg17 mi
6:00 PM53 °FOvercast.5 mph91%29.79 "Hg11 mi
4:00 PM51 °FLight rain. Low clouds.3 mph94%29.74 "Hg3 mi
3:00 PM50 °FLow clouds.3 mph94%29.71 "Hg7 mi
2:00 PM48 °FLight rain. Low clouds.5 mph94%29.69 "Hg3 mi
1:00 PM48 °FLight rain. Low clouds.8 mph91%29.67 "Hg2 mi
12:00 PM48 °FLight rain. Overcast.8 mph89%29.69 "Hg9 mi
10:00 AM47 °FLight rain. Overcast.8 mph85%29.69 "Hg5 mi
9:00 AM49 °FLight rain. Overcast.7 mph81%29.67 "Hg9 mi
8:00 AM48 °FOvercast.6 mph86%29.66 "Hg12 mi
Weather by CustomWeather, © 2014

See weather overviewHow to use our weather pages